[[{"header":{"parameterUnit":"m.s-1","parameterCategory":1,"la1":30.2991,"la2":30.254,"lo1":-89.0895,"lo2":-89.0444,"dy":0.0017,"dx":0.0017,"nx":28,"ny":28,"refTime":"2024-12-02T09:00:00:Z","depth":0,"parameterNumber":2,"parameterNumberName":"U-component_of_WINDS"},"data":[0,0,0,0,0,0,0,0,0,0,0,0,0,0,0,0,0,0,0,0,0,0,0,0,0,0,0,0,0,0,0,0,0,0,0,0,0,0,0,0,0,0,0,0,0,0,0,0,0,0,0,0,0,0,0,0,0,0,-1.9298,-1.9299,0,-1.9328,-1.9329,-1.9329,-1.9241,-1.9238,-1.9235,-1.9233,-1.9265,-1.9268,-1.9271,0,0,0,0,0,0,0,0,0,0,0,0,0,-1.9164,-1.9167,-1.9298,-1.9299,-1.9299,-1.9328,-1.9329,-1.9329,-1.9241,-1.9238,-1.9235,-1.9231,-1.9263,-1.9267,-1.9271,0,0,0,0,0,0,0,0,0,0,0,0,0,-1.9212,-1.9168,-1.9298,-1.9259,-1.9255,-1.9328,-1.9329,-1.9329,-1.9242,-1.9238,-1.9234,-1.923,-1.9262,-1.9267,-1.9272,-1.9385,0,0,-1.9288,-1.929,0,0,0,0,0,0,0,0,-1.9209,-1.9217,-1.9264,-1.9262,-1.9258,-1.9277,-1.9293,-1.9348,-1.9243,-1.9247,-1.9233,-1.9228,-1.9272,-1.9276,-1.9291,-1.9387,-1.9388,-1.9288,-1.9291,-1.9293,-1.9295,0,0,0,0,0,0,0,-1.9206,-1.9215,-1.931,-1.9265,-1.9261,-1.9239,-1.9241,-1.9303,-1.9282,-1.9246,-1.924,-1.9245,-1.9269,-1.9286,-1.9291,-1.9388,-1.9288,-1.9292,-1.9295,-1.9297,-1.9578,-1.9582,0,0,0,0,0,0,-1.9208,-1.9213,-1.9309,-1.9311,-1.9223,-1.9245,-1.9247,-1.9275,-1.9281,-1.9278,-1.9248,-1.924,-1.9279,-1.9285,-1.9291,-1.9425,-1.9293,-1.9298,-1.9301,-1.9574,-1.9579,-1.9584,0,0,0,0,0,0,-1.9205,-1.9217,-1.9308,-1.926,-1.927,-1.9252,-1.9283,-1.9278,-1.9294,-1.9282,-1.9278,-1.9269,-1.9276,-1.9284,-1.9362,-1.9424,-1.93,-1.9305,-1.9569,-1.9575,-1.9581,-1.9692,0,0,0,0,0,0,-1.9202,-1.9217,-1.926,-1.9262,-1.9273,-1.9379,-1.9287,-1.9281,-1.9303,-1.9293,-1.9301,-1.9298,-1.9274,-1.9355,-1.9367,-1.9429,-1.9309,-1.9563,-1.9572,-1.9579,-1.9683,-1.9702,-1.9718,0,0,0,0,0,-1.9197,-1.929,-1.9262,-1.9275,-1.9326,-1.9383,-1.9389,-1.9359,-1.9308,-1.9351,-1.9344,-1.9298,-1.9415,-1.9364,-1.9377,-1.9441,-1.9559,-1.9569,-1.9579,-1.9675,-1.9698,-1.9717,0,0,0,0,0,0,-1.9296,-1.9289,-1.9259,-1.9355,-1.937,-1.9368,-1.9421,-1.9384,-1.9414,-1.9404,-1.9365,-1.9367,-1.9453,-1.9454,-1.9397,-1.9551,-1.9478,-1.9491,-1.9547,-1.9569,-1.9586,-1.9585,-1.9313,0,0,0,0,0,-1.9329,-1.9375,-1.9367,-1.9452,-1.9461,-1.944,-1.9464,-1.9439,-1.9453,-1.9459,-1.9457,-1.9473,-1.9513,-1.954,-1.9577,-1.9681,-1.9682,-1.9732,-1.9749,-1.9764,-1.9776,-1.9832,-1.9854,-1.9616,-1.9616,-1.9616,0,0,-1.9398,-1.94,-1.9432,-1.9472,-1.9481,-1.953,-1.9446,-1.9502,-1.9538,-1.9467,-1.9541,-1.954,-1.9555,-1.9647,-1.9687,-1.9651,-1.9842,-1.9776,-1.9788,-1.9793,-1.9844,-1.9867,-1.9887,-1.9623,-1.9622,-1.9621,0,0,-1.9549,-1.9555,-1.9627,-1.9637,-1.9651,-1.9636,-1.9653,-1.9656,-1.9653,-1.9726,-1.9674,-1.9716,-1.9786,-1.9799,-1.9814,-1.9968,-1.9928,-1.9981,-2.0073,-2.0128,-2.0147,-2.0163,-2.0219,-2.024,-1.9993,-1.9993,-1.9993,0,-1.9633,-1.9705,-1.9669,-1.9728,-1.9747,-1.9684,-1.9757,-1.9769,-1.9794,-1.9809,-1.9768,-1.9854,-1.9859,-1.9954,-1.9991,-2.0006,-2.0025,-1.9981,-2.0147,-2.0163,-2.0178,-2.0231,-2.0252,-2.0,-1.9999,-1.9998,-1.9998,0,-1.9808,-1.9858,-1.9915,-1.9941,-1.9966,-2.0032,-2.0006,-2.0036,-2.0008,-1.9997,-2.0072,-2.0076,-2.0112,-2.0132,-2.0106,-2.0223,-2.02,-2.0153,-2.008,-2.0208,-2.0257,-2.0277,-2.0009,-2.0007,-2.0005,-2.0003,0,0,-2.0025,-2.0028,-2.005,-2.0061,-2.0071,-2.0109,-2.0171,-2.0206,-2.0233,-2.0252,-2.0304,-2.0364,-2.032,-2.0338,-2.0312,-2.036,-2.0483,-2.0307,-2.0307,-2.0341,-2.0613,-2.0649,-2.0673,-2.0455,-2.0458,-2.0461,-2.0612,0,-2.0174,-2.0281,-2.025,-2.0358,-2.0404,-2.0344,-2.0399,-2.0411,-2.0402,-2.044,-2.0429,-2.0473,-2.0412,-2.0422,-2.0467,-2.0459,-2.0537,-2.0447,-2.0504,-2.0506,-2.0504,-2.0699,-2.0738,-2.088,-2.0631,-2.0634,-2.0636,0,-2.0364,-2.039,-2.0503,-2.0504,-2.0523,-2.0572,-2.0601,-2.0638,-2.065,-2.064,-2.0659,-2.0623,-2.0684,-2.0609,-2.0693,-2.0633,-2.0653,-2.0653,-2.0657,-2.0663,-2.0581,-2.0712,-2.0924,-2.0946,-2.0666,-2.0663,-2.0661,0,-2.0513,-2.0575,-2.0651,-2.0662,-2.0665,-2.0702,-2.0705,-2.0713,-2.0735,-2.076,-2.0775,-2.0807,-2.0825,-2.085,-2.0824,-2.0771,-2.0912,-2.0835,-2.0906,-2.0907,-2.0941,-2.094,-2.1162,-2.0951,-2.0951,-2.0951,-2.095,0,-2.0684,-2.0756,-2.0718,-2.0765,-2.0843,-2.0805,-2.0884,-2.088,-2.0887,-2.0932,-2.0881,-2.0924,-2.0886,-2.0925,-2.0904,-2.0978,-2.0986,-2.098,-2.0974,-2.0986,-2.0987,-2.1,-2.0991,-2.0956,-2.0955,-2.0954,-2.0953,0,-2.0865,-2.0842,-2.092,-2.0917,-2.0917,-2.0976,-2.0972,-2.1015,-2.1002,-2.1059,-2.107,-2.105,-2.1094,-2.1069,-2.1114,-2.11,-2.1195,-2.1175,-2.1192,-2.1187,-2.126,-2.1255,-2.1501,-2.1532,-2.13,-2.1302,-2.1304,0,-2.0977,-2.1031,-2.1032,-2.1059,-2.1065,-2.1108,-2.1131,-2.1095,-2.1121,-2.1138,-2.1179,-2.1218,-2.1248,-2.1321,-2.131,-2.1344,-2.1325,-2.1409,-2.133,-2.134,-2.1328,-2.1326,-2.1331,-2.1426,-2.1428,-2.1431,-2.1432,0,-2.1179,-2.1165,-2.1199,-2.123,-2.1259,-2.1281,-2.1299,-2.1324,-2.1288,-2.1319,-2.1364,-2.1387,-2.1432,-2.1472,-2.1501,-2.1503,-2.1463,-2.1457,-2.1475,-2.1489,-2.1497,-2.1495,-2.1237,-2.1452,-2.145,-2.1449,-2.1447,-2.1447,-2.133,-2.1375,-2.1383,-2.1423,-2.1433,-2.1451,-2.1491,-2.1482,-2.1518,-2.1552,-2.1528,-2.1581,-2.159,-2.1624,-2.1632,-2.1673,-2.1639,-2.1666,-2.1673,-2.1681,-2.1691,-2.1489,-2.1677,-2.1677,-2.1676,-2.1676,-2.1675,0,-2.1531,-2.1532,-2.157,-2.1597,-2.1628,-2.1585,-2.1603,-2.1632,-2.1679,-2.1691,-2.1721,-2.1771,-2.1809,-2.18,-2.1835,-2.1868,-2.1851,-2.1879,-2.1877,-2.1878,-2.1719,-2.17,-2.1893,-2.1893,-2.1893,-2.1893,-2.1893,-2.1893,-2.1639,-2.1713,-2.1699,-2.1777,-2.1778,-2.1829,-2.1843,-2.1859,-2.1868,-2.1927,-2.1958,-2.1952,-2.1955,-2.1989,-2.2022,-2.2018,-2.2034,-2.207,-2.2059,-2.1911,-2.189,-2.1869,-2.1851,-2.2073,-2.2073,-2.2216,-2.2217,-2.2218]},{"header":{"parameterUnit":"m.s-1","parameterCategory":1,"la1":30.2991,"la2":30.254,"lo1":-89.0895,"lo2":-89.0444,"dy":0.0017,"dx":0.0017,"nx":28,"ny":28,"refTime":"2024-12-02T09:00:00:Z","depth":0,"parameterNumber":3,"parameterNumberName":"V-component_of_WINDS"},"data":[0,0,0,0,0,0,0,0,0,0,0,0,0,0,0,0,0,0,0,0,0,0,0,0,0,0,0,0,0,0,0,0,0,0,0,0,0,0,0,0,0,0,0,0,0,0,0,0,0,0,0,0,0,0,0,0,0,0,-5.4408,-5.4409,0,-5.4484,-5.4485,-5.4486,-5.4401,-5.4398,-5.4395,-5.4391,-5.4464,-5.4469,-5.4474,0,0,0,0,0,0,0,0,0,0,0,0,0,-5.4182,-5.4187,-5.4408,-5.4409,-5.441,-5.4484,-5.4485,-5.4486,-5.4402,-5.4398,-5.4394,-5.439,-5.4463,-5.4468,-5.4474,0,0,0,0,0,0,0,0,0,0,0,0,0,-5.4272,-5.4188,-5.4408,-5.4377,-5.4375,-5.4484,-5.4485,-5.4487,-5.4402,-5.4398,-5.4393,-5.4388,-5.4461,-5.4468,-5.4475,-5.4617,0,0,-5.4498,-5.4501,0,0,0,0,0,0,0,0,-5.4267,-5.428,-5.438,-5.4379,-5.4377,-5.4428,-5.4432,-5.453,-5.4404,-5.4392,-5.4391,-5.4386,-5.4456,-5.4463,-5.4488,-5.4621,-5.4624,-5.4498,-5.4503,-5.4506,-5.4508,0,0,0,0,0,0,0,-5.4261,-5.4276,-5.4438,-5.4382,-5.438,-5.4357,-5.4364,-5.445,-5.445,-5.4392,-5.4386,-5.4397,-5.4454,-5.4481,-5.4489,-5.4625,-5.4498,-5.4505,-5.4509,-5.4512,-5.4876,-5.4881,0,0,0,0,0,0,-5.4259,-5.4272,-5.4436,-5.444,-5.4309,-5.4365,-5.4373,-5.4417,-5.4448,-5.4449,-5.4401,-5.4393,-5.4471,-5.4481,-5.4491,-5.4659,-5.4506,-5.4513,-5.4517,-5.4871,-5.4877,-5.4883,0,0,0,0,0,0,-5.4254,-5.4274,-5.4432,-5.4354,-5.4373,-5.4374,-5.4423,-5.4421,-5.4448,-5.4455,-5.4454,-5.4429,-5.4467,-5.4481,-5.4587,-5.466,-5.4516,-5.4523,-5.4865,-5.4873,-5.488,-5.4996,0,0,0,0,0,0,-5.4248,-5.4273,-5.4329,-5.4356,-5.4377,-5.4529,-5.4428,-5.4426,-5.4462,-5.4451,-5.4481,-5.4482,-5.4465,-5.4576,-5.4594,-5.4668,-5.4529,-5.4858,-5.4869,-5.4878,-5.4986,-5.5007,-5.5025,0,0,0,0,0,-5.424,-5.4357,-5.4332,-5.4352,-5.4447,-5.4533,-5.4545,-5.4525,-5.4468,-5.4523,-5.4527,-5.4481,-5.465,-5.4588,-5.4607,-5.4684,-5.4854,-5.4866,-5.4877,-5.4977,-5.5003,-5.5025,0,0,0,0,0,0,-5.4336,-5.436,-5.4332,-5.4462,-5.4497,-5.4519,-5.4587,-5.4553,-5.4603,-5.4591,-5.4562,-5.4569,-5.4682,-5.4693,-5.4624,-5.4823,-5.4742,-5.4758,-5.4811,-5.4836,-5.4855,-5.485,-5.4535,0,0,0,0,0,-5.4373,-5.4443,-5.4459,-5.4572,-5.4591,-5.4587,-5.4623,-5.4605,-5.4638,-5.4652,-5.4664,-5.4697,-5.4757,-5.4797,-5.4853,-5.4987,-5.4992,-5.505,-5.507,-5.5086,-5.51,-5.5171,-5.5196,-5.4922,-5.4922,-5.4922,0,0,-5.4448,-5.447,-5.4516,-5.4592,-5.4616,-5.4687,-5.4599,-5.4678,-5.473,-5.4663,-5.4764,-5.4774,-5.4808,-5.4929,-5.4983,-5.4942,-5.5177,-5.5101,-5.5114,-5.5119,-5.5185,-5.5211,-5.5235,-5.493,-5.4928,-5.4927,0,0,-5.4622,-5.4646,-5.4743,-5.4769,-5.4808,-5.4805,-5.4828,-5.4856,-5.486,-5.4962,-5.4913,-5.4973,-5.5078,-5.5104,-5.5131,-5.5315,-5.5274,-5.5334,-5.5437,-5.5506,-5.5528,-5.5547,-5.5612,-5.5635,-5.5348,-5.5348,-5.5349,0,-5.471,-5.4818,-5.4796,-5.4879,-5.4913,-5.4858,-5.4954,-5.498,-5.5035,-5.5058,-5.5013,-5.5143,-5.5162,-5.5288,-5.5333,-5.5357,-5.5381,-5.533,-5.5527,-5.5546,-5.5563,-5.5624,-5.5649,-5.5355,-5.5355,-5.5354,-5.5353,0,-5.4924,-5.4999,-5.5072,-5.5128,-5.517,-5.5259,-5.5249,-5.5294,-5.5272,-5.5273,-5.5376,-5.5397,-5.5456,-5.5484,-5.5463,-5.5607,-5.5581,-5.5532,-5.5449,-5.5597,-5.5654,-5.5677,-5.5366,-5.5363,-5.5361,-5.5359,0,0,-5.516,-5.5203,-5.523,-5.5255,-5.5294,-5.535,-5.5436,-5.5496,-5.5534,-5.5573,-5.5643,-5.5733,-5.5689,-5.5719,-5.57,-5.5761,-5.5904,-5.5704,-5.5705,-5.574,-5.6063,-5.6099,-5.6127,-5.5878,-5.5882,-5.5886,-5.606,0,-5.5334,-5.5485,-5.5468,-5.5611,-5.5679,-5.5628,-5.5702,-5.5733,-5.5736,-5.5792,-5.5794,-5.5858,-5.5795,-5.5813,-5.5871,-5.5875,-5.5969,-5.5862,-5.5941,-5.5944,-5.5933,-5.6157,-5.6196,-5.6359,-5.6082,-5.6086,-5.6089,0,-5.5557,-5.5607,-5.5758,-5.5786,-5.5813,-5.5881,-5.5934,-5.5989,-5.6022,-5.602,-5.6055,-5.6025,-5.6109,-5.6026,-5.614,-5.6068,-5.6099,-5.6106,-5.6111,-5.6117,-5.6025,-5.6168,-5.6411,-5.6435,-5.6124,-5.6121,-5.6118,0,-5.5713,-5.5817,-5.5921,-5.5943,-5.5979,-5.6027,-5.6044,-5.6073,-5.6109,-5.6155,-5.6178,-5.6232,-5.6262,-5.6303,-5.6288,-5.6229,-5.6405,-5.6321,-5.6404,-5.6404,-5.6442,-5.644,-5.6693,-5.6464,-5.6464,-5.6463,-5.6463,0,-5.5909,-5.6003,-5.5991,-5.6055,-5.6158,-5.6137,-5.6239,-5.6249,-5.6275,-5.6338,-5.6295,-5.6355,-5.6332,-5.6389,-5.6377,-5.6473,-5.6487,-5.6486,-5.6481,-5.6489,-5.649,-5.6509,-5.6497,-5.647,-5.6468,-5.6467,-5.6466,0,-5.61,-5.6097,-5.6206,-5.6231,-5.624,-5.6315,-5.6335,-5.6394,-5.6393,-5.6474,-5.6491,-5.649,-5.6556,-5.6545,-5.6617,-5.6609,-5.6728,-5.671,-5.6718,-5.6713,-5.6797,-5.6789,-5.707,-5.7105,-5.6854,-5.6857,-5.6859,0,-5.6225,-5.6297,-5.633,-5.6371,-5.6391,-5.6457,-5.6494,-5.6475,-5.6516,-5.6559,-5.6612,-5.6675,-5.6723,-5.683,-5.6835,-5.6889,-5.6871,-5.6966,-5.6879,-5.6885,-5.6872,-5.6868,-5.6874,-5.6983,-5.6986,-5.6989,-5.699,0,-5.6447,-5.6442,-5.6499,-5.6556,-5.6603,-5.6646,-5.6685,-5.672,-5.6704,-5.6751,-5.6819,-5.6857,-5.6931,-5.6993,-5.7044,-5.7059,-5.7022,-5.7018,-5.704,-5.7048,-5.705,-5.7049,-5.6764,-5.7011,-5.7009,-5.7008,-5.7007,-5.7006,-5.6608,-5.6669,-5.6703,-5.6768,-5.6795,-5.6832,-5.6889,-5.6896,-5.6953,-5.7014,-5.6998,-5.7075,-5.7105,-5.717,-5.719,-5.7248,-5.7213,-5.7245,-5.7253,-5.7261,-5.727,-5.7041,-5.7257,-5.7257,-5.7256,-5.7256,-5.7255,0,-5.6827,-5.6846,-5.6907,-5.6963,-5.7014,-5.6977,-5.7018,-5.7062,-5.713,-5.7162,-5.7212,-5.7289,-5.7349,-5.7358,-5.7414,-5.7459,-5.7443,-5.7474,-5.747,-5.7474,-5.7299,-5.7274,-5.7486,-5.7486,-5.7486,-5.7486,-5.7486,-5.7485,-5.6947,-5.7048,-5.7047,-5.716,-5.7178,-5.7254,-5.7281,-5.7314,-5.734,-5.7429,-5.7479,-5.7485,-5.7508,-5.7565,-5.7617,-5.7618,-5.764,-5.7678,-5.7672,-5.7509,-5.7486,-5.7464,-5.7441,-5.7683,-5.7684,-5.7842,-5.7843,-5.7844]}]]